#timestamp,LO_Frequency,Hit 
1505206815.2,286046994.5,N
1505206835.0,286046994.6,N
1505206835.9,286046994.6,N
1505206855.8,286046997.6,N
1505206875.6,286046999.1,N
1505206895.4,286046994.5,N
1505206915.3,286046993.0,N
1505206935.1,286046991.1,N
1505206936.0,286046991.1,N
1505206955.8,286046989.0,N
1505206975.7,286046989.0,N
1505206995.5,286046993.0,N
1505207015.3,286046994.4,N
1505207035.2,286046993.8,N
1505207055.9,286046995.4,N
1505207075.7,286046996.6,N
1505207095.5,286046995.3,N
1505207115.4,286046995.3,N
1505207135.2,286046997.9,N
1505207155.0,286046996.4,N
1505207155.9,286046996.4,N
1505207175.8,286046996.0,N
1505207195.6,286046994.0,N
1505207215.4,286046995.1,N
1505207235.3,286046993.4,N
1505207255.1,286046997.7,N
1505207275.8,286046993.7,N
1505207295.7,286046996.0,N
1505207315.5,286046992.7,P
1505207335.3,286046999.0,N
1505207355.2,286046997.1,N
1505207375.9,286046994.9,N
1505207395.7,286046997.5,N
1505207415.6,286046996.2,N
1505207435.4,286047001.5,N
1505207455.2,286047000.3,N
1505207475.1,286047001.5,N
1505207476.0,286047001.5,N
1505207495.8,286046998.1,N
1505207515.6,286046998.3,N
1505207535.5,286046999.3,N
1505207555.3,286047001.8,N
1505207575.1,286047002.4,N
1505207595.8,286047001.9,N
1505207615.7,286047003.8,N
1505207635.5,286047002.9,N
1505207655.3,286047005.8,N
1505207675.2,286047004.7,N
1505207695.9,286047006.3,N
1505207715.7,286047004.3,N
1505207735.6,286046999.9,N
1505207755.4,286047004.3,N
1505207775.2,286047002.8,N
1505207795.1,286046998.6,N
1505207796.0,286046998.6,N
1505207815.1,286047001.8,N
1505207835.9,286047001.7,N
1505207855.8,286046999.4,N
1505207875.7,286046997.2,N
1505207895.5,286047002.5,N
1505207915.3,286047000.3,N
1505207935.1,286046998.3,N
1505207955.9,286047001.0,N
1505207975.7,286046998.1,N
1505207995.5,286047000.7,N
1505208015.4,286047002.5,N
1505208035.2,286046998.4,N
1505208055.0,286046998.1,N
1505208055.9,286046998.1,N
1505208075.8,286046998.9,N
1505208095.6,286046999.2,N
1505208115.4,286047001.5,N
1505208135.3,286046998.7,N
1505208155.1,286047002.8,N
1505208156.0,286047002.8,N
1505208175.8,286047001.8,N
1505208195.7,286047000.6,N
1505208215.5,286046996.6,N
1505208235.4,286046995.4,N
1505208255.2,286047001.1,N
1505208275.0,286047000.1,N
1505208275.9,286047000.1,N
1505208295.8,286047002.9,N
1505208315.6,286047005.2,N
1505208335.4,286047005.1,N
1505208355.3,286047001.4,N
1505208375.1,286047004.1,N
1505208376.0,286047004.1,N
1505208395.8,286047002.5,N
1505208415.7,286047002.3,N
1505208435.5,286047000.2,N
1505208455.3,286047000.1,N
1505208475.2,286046994.9,N
1505208495.9,286046995.7,N
1505208515.7,286046995.7,N
1505208535.6,286046995.4,N
1505208555.4,286046991.3,N
1505208575.2,286046992.0,N
1505208595.1,286046996.3,N
1505208596.0,286046996.3,N
1505208615.8,286046995.4,N
1505208635.6,286047000.8,N
1505208655.5,286047001.0,N
1505208675.3,286047004.2,N
1505208695.1,286047001.6,N
1505208715.9,286047000.5,N
1505208735.7,286046998.7,N
1505208755.5,286046997.4,N
1505208775.3,286046995.5,N
1505208795.2,286046993.7,N
1505208815.0,286046992.0,N
1505208815.9,286046992.0,N
1505208835.7,286046995.8,N
1505208855.6,286046997.6,N
1505208875.4,286046999.5,N
1505208895.2,286046997.0,N
1505208915.1,286046995.3,N
1505208916.0,286046995.3,N
1505208935.8,286046995.2,N
1505208955.6,286046997.0,N
1505208975.5,286046999.9,N
1505208995.3,286046998.1,N
1505209015.1,286046997.4,N
1505209035.9,286047000.6,N
1505209055.7,286046998.7,N
1505209075.5,286046994.9,N
1505209095.4,286046999.3,N
1505209115.2,286046998.9,N
1505209135.0,286046997.2,N
1505209135.9,286046997.2,N
1505209155.9,286046997.9,N
1505209175.7,286046998.4,N
1505209195.6,286046998.0,N
1505209215.4,286046996.6,N
1505209235.2,286047003.9,N
1505209255.1,286047003.5,N
1505209256.0,286047003.5,N
1505209275.8,286047003.2,N
1505209295.6,286047001.5,N
1505209315.5,286046998.3,N
1505209335.3,286047002.8,N
1505209355.1,286046998.5,N
1505209375.9,286047000.9,N
1505209395.7,286047001.0,N
1505209415.5,286047000.0,N
1505209435.3,286046999.5,N
1505209455.2,286047000.5,N
1505209475.0,286046998.5,N
1505209475.9,286046998.5,N
1505209495.7,286046998.1,N
1505209515.6,286046997.0,N
1505209535.4,286046999.4,N
1505209555.2,286047000.1,N
1505209575.1,286047002.4,N
1505209576.0,286047002.4,N
1505209595.8,286047004.5,N
1505209615.6,286047005.0,N
1505209635.5,286047004.5,N
1505209655.3,286047005.7,N
1505209675.1,286047003.4,N
1505209695.9,286047004.2,N
1505209715.7,286047001.9,N
1505209735.5,286047003.6,N
1505209755.4,286047001.8,N
1505209775.2,286047002.0,N
1505209795.0,286047005.4,N
1505209795.9,286047005.4,N
1505209815.8,286047007.4,N
1505209835.6,286046999.8,N
1505209855.4,286047001.0,N
1505209875.2,286047000.8,N
1505209895.1,286047001.9,N
1505209896.0,286047001.9,N
1505209915.8,286047004.5,N
1505209935.6,286047004.6,N
1505209955.5,286047005.1,N
1505209975.3,286047004.7,N
1505209995.1,286047003.3,N
1505210015.9,286047003.9,N
1505210035.0,286047001.9,N
1505210035.9,286047001.9,N
1505210055.8,286046999.0,N
1505210075.6,286046998.5,N
1505210095.4,286046999.5,N
1505210115.3,286047001.6,N
1505210135.1,286047003.7,N
1505210136.0,286047003.7,N
1505210155.8,286047005.0,N
1505210175.7,286047005.3,N
1505210195.5,286047002.5,N
1505210215.3,286047005.5,N
1505210235.2,286047008.8,P
1505210255.9,286047000.0,N
1505210275.7,286046998.7,N
1505210295.6,286046998.4,N
1505210315.4,286046997.3,N
1505210335.2,286046998.6,N
1505210355.1,286047000.0,N
1505210356.0,286047000.0,N
1505210375.8,286047001.1,N
1505210395.6,286047000.4,N
